sat.trackr.live / text

‹ back to catalog

TIANMU-1 09

NORAD 57401 · 2023-101C

PAYLOAD ACTIVE UNKNOWN

§ Identity

Operator
Country
PRC
Launch date
2023-07-20
Launch site
JSC
Launch vehicle
Mass (kg)
RCS (m²)

Purposes: earth_obs

External: N2YO · Heavens-Above · Gunter

§ Orbital elements

Epoch: 2026-05-25T03:43:10.520832Z

Period
94.15 min
Inclination
97.2556°
Eccentricity
0.0002519
Mean motion
15.29522547 rev/d
Perigee alt
475.5 km
Apogee alt
479.0 km
Semi-major
6,855.4 km
B*
2.0080e-4
RAAN
195.5573°
Arg perigee
186.3862°
Mean anomaly
173.7347°
Rev number
15,812

§ Raw data

TIANMU-1 091 57401U 23101C   26145.15498288  .00005673  00000+0  20080-3 0  99902 57401  97.2556 195.5573 0002519 186.3862 173.7347 15.29522547158120

JSON: /api/v1/satellites/57401 · /tle

For live sub-satellite position, see the globe view (requires WebGL).

§ Visibility from observer

Set your observer location to see the next 7 days of passes ≥ 10°. The values pass through the URL so the page stays shareable.

No JS? Fill the form by hand. The geolocation button needs JavaScript.